RYR6142 EDDG-EGSS

Flight info

Callsign RYR6142
Flight time 1h 14m
Altitude 32000
Route SUVOX1E/07 SUVOX DCT REBGU L602 FLEVO L980 PAM DCT NOGRO M40 RINIS
Aircraft B738/M-SDE3FGILRWY/SB1

Departure

Time 2026-05-08 19:03
Airport Münster Osnabrück Airport (EDDG)

Arrival

Time 2026-05-08 20:17
Airport London Stansted Airport (EGSS)
Time Latitude Longitude Altitude Speed Heading
2026-05-08 18:35 52.13187 7.69456 166 ft 0 kts 196°
2026-05-08 18:54 52.13186 7.69456 166 ft 0 kts 196°
2026-05-08 18:54 52.13181 7.69451 166 ft 1 kts 221°
2026-05-08 18:54 52.13180 7.69437 166 ft 1 kts 283°
2026-05-08 18:55 52.13208 7.69421 166 ft 2 kts 348°
2026-05-08 18:55 52.13229 7.69414 166 ft 3 kts 340°
2026-05-08 18:55 52.13237 7.69373 166 ft 4 kts 266°
2026-05-08 18:56 52.13252 7.69323 166 ft 8 kts 329°
2026-05-08 18:56 52.13309 7.69289 166 ft 8 kts 341°
2026-05-08 18:56 52.13350 7.69266 166 ft 0 kts 339°
2026-05-08 18:56 52.13356 7.69262 166 ft 1 kts 337°
2026-05-08 18:57 52.13404 7.69235 166 ft 12 kts 339°
2026-05-08 18:57 52.13429 7.69162 166 ft 11 kts 262°
2026-05-08 18:57 52.13399 7.69003 166 ft 10 kts 250°
2026-05-08 18:57 52.13375 7.68893 166 ft 10 kts 251°
2026-05-08 18:58 52.13352 7.68783 166 ft 12 kts 250°
2026-05-08 18:58 52.13315 7.68610 165 ft 16 kts 251°
2026-05-08 18:58 52.13277 7.68435 165 ft 16 kts 250°
2026-05-08 18:58 52.13242 7.68269 165 ft 15 kts 252°
2026-05-08 18:59 52.13210 7.68114 165 ft 14 kts 251°
2026-05-08 18:59 52.13179 7.67968 164 ft 13 kts 251°
2026-05-08 18:59 52.13149 7.67828 164 ft 12 kts 252°
2026-05-08 18:59 52.13122 7.67696 164 ft 11 kts 251°
2026-05-08 19:00 52.13104 7.67614 163 ft 11 kts 251°
2026-05-08 19:00 52.13071 7.67457 163 ft 10 kts 251°
2026-05-08 19:00 52.13047 7.67346 163 ft 10 kts 251°
2026-05-08 19:00 52.13026 7.67242 163 ft 9 kts 255°
2026-05-08 19:01 52.13034 7.67144 162 ft 8 kts 292°
2026-05-08 19:01 52.13070 7.67077 162 ft 7 kts 326°
2026-05-08 19:01 52.13116 7.67043 162 ft 6 kts 340°
2026-05-08 19:01 52.13155 7.67042 162 ft 5 kts 45°
2026-05-08 19:02 52.13162 7.67065 162 ft 0 kts 72°
2026-05-08 19:02 52.13227 7.67364 163 ft 65 kts 72°
2026-05-08 19:03 52.13454 7.68445 165 ft 132 kts 72°
2026-05-08 19:03 52.13801 7.70069 448 ft 162 kts 72°
2026-05-08 19:03 52.14158 7.71742 1194 ft 163 kts 72°
2026-05-08 19:03 52.14557 7.73567 1793 ft 176 kts 72°
2026-05-08 19:04 52.14975 7.75471 2343 ft 188 kts 72°
2026-05-08 19:04 52.15392 7.77561 2846 ft 203 kts 77°
2026-05-08 19:04 52.15410 7.79918 3289 ft 221 kts 105°
2026-05-08 19:04 52.14653 7.82143 3827 ft 236 kts 131°
2026-05-08 19:05 52.13321 7.83858 4421 ft 250 kts 152°
2026-05-08 19:05 52.11678 7.84704 5203 ft 254 kts 175°
2026-05-08 19:05 52.09940 7.84325 6022 ft 256 kts 199°
2026-05-08 19:05 52.08363 7.82988 6783 ft 260 kts 214°
2026-05-08 19:06 52.06958 7.81042 7269 ft 275 kts 229°
2026-05-08 19:06 52.06026 7.78328 8022 ft 279 kts 249°
2026-05-08 19:06 52.05421 7.75310 8754 ft 283 kts 253°
2026-05-08 19:06 52.04862 7.72276 9472 ft 287 kts 252°
2026-05-08 19:07 52.04265 7.69200 10204 ft 290 kts 251°
2026-05-08 19:07 52.03620 7.66053 10750 ft 301 kts 251°
2026-05-08 19:07 52.02932 7.62790 11158 ft 316 kts 251°
2026-05-08 19:07 52.02198 7.59351 11565 ft 331 kts 251°
2026-05-08 19:08 52.01435 7.55781 12217 ft 337 kts 251°
2026-05-08 19:08 52.00655 7.52137 13027 ft 340 kts 251°
2026-05-08 19:08 51.99879 7.48510 13786 ft 344 kts 251°
2026-05-08 19:08 51.99098 7.44864 14559 ft 346 kts 251°
2026-05-08 19:09 51.98306 7.41172 15308 ft 349 kts 251°
2026-05-08 19:09 51.97504 7.37443 16046 ft 353 kts 252°
2026-05-08 19:09 51.96708 7.33656 16745 ft 356 kts 252°
2026-05-08 19:09 51.96096 7.29774 17445 ft 359 kts 259°
2026-05-08 19:10 51.95876 7.25765 18151 ft 362 kts 269°
2026-05-08 19:10 51.96002 7.21639 18847 ft 365 kts 275°
2026-05-08 19:10 51.96291 7.17587 19490 ft 368 kts 279°
2026-05-08 19:10 51.96935 7.13574 20080 ft 372 kts 290°
2026-05-08 19:11 51.98072 7.09801 20703 ft 376 kts 301°
2026-05-08 19:11 51.99665 7.06430 21297 ft 379 kts 313°
2026-05-08 19:11 52.01629 7.03530 21911 ft 382 kts 320°
2026-05-08 19:11 52.03744 7.00913 22420 ft 387 kts 323°
2026-05-08 19:12 52.05821 6.98321 23001 ft 389 kts 319°
2026-05-08 19:12 52.07733 6.95312 23517 ft 392 kts 310°
2026-05-08 19:12 52.09313 6.91711 24092 ft 393 kts 300°
2026-05-08 19:12 52.10562 6.87750 24666 ft 394 kts 295°
2026-05-08 19:13 52.11653 6.83654 25120 ft 399 kts 292°
2026-05-08 19:13 52.12721 6.79473 25688 ft 400 kts 293°
2026-05-08 19:13 52.13767 6.75365 26156 ft 403 kts 292°
2026-05-08 19:13 52.14744 6.71091 26607 ft 406 kts 290°
2026-05-08 19:14 52.15680 6.66710 27090 ft 409 kts 290°
2026-05-08 19:14 52.16597 6.62334 27549 ft 412 kts 290°
2026-05-08 19:14 52.17533 6.57887 28216 ft 409 kts 290°
2026-05-08 19:14 52.18470 6.53488 28932 ft 404 kts 291°
2026-05-08 19:15 52.19394 6.49196 29472 ft 403 kts 291°
2026-05-08 19:15 52.20341 6.44823 29920 ft 404 kts 291°
2026-05-08 19:15 52.21274 6.40543 30500 ft 401 kts 291°
2026-05-08 19:15 52.22211 6.36246 31005 ft 400 kts 292°
2026-05-08 19:16 52.23140 6.31987 31455 ft 398 kts 291°
2026-05-08 19:16 52.24061 6.27763 31878 ft 398 kts 291°
2026-05-08 19:16 52.24983 6.23528 32080 ft 400 kts 291°
2026-05-08 19:17 52.26840 6.14965 32134 ft 395 kts 291°
2026-05-08 19:17 52.28656 6.06561 32131 ft 394 kts 291°
2026-05-08 19:18 52.30475 5.98117 32124 ft 395 kts 292°
2026-05-08 19:18 52.32295 5.89630 32127 ft 396 kts 292°
2026-05-08 19:19 52.34100 5.81175 32128 ft 394 kts 292°
2026-05-08 19:19 52.35898 5.72728 32132 ft 396 kts 292°
2026-05-08 19:20 52.37615 5.64175 32131 ft 396 kts 287°
2026-05-08 19:20 52.38071 5.55207 32131 ft 403 kts 269°
2026-05-08 19:21 52.37310 5.46070 32126 ft 405 kts 264°
2026-05-08 19:21 52.36343 5.37024 32124 ft 405 kts 264°
2026-05-08 19:22 52.35379 5.27923 32130 ft 407 kts 264°
2026-05-08 19:22 52.34450 5.18874 32126 ft 407 kts 264°
2026-05-08 19:23 52.33510 5.09728 32132 ft 408 kts 263°
2026-05-08 19:23 52.32111 5.00800 32125 ft 408 kts 257°
2026-05-08 19:24 52.30417 4.91936 32123 ft 409 kts 256°
2026-05-08 19:24 52.28709 4.83058 32130 ft 409 kts 257°
2026-05-08 19:25 52.27032 4.74203 32126 ft 410 kts 257°
2026-05-08 19:25 52.25362 4.65313 32128 ft 410 kts 257°
2026-05-08 19:26 52.23694 4.56431 32125 ft 410 kts 258°
2026-05-08 19:26 52.22020 4.47555 32130 ft 409 kts 258°
2026-05-08 19:27 52.20346 4.38713 32126 ft 407 kts 257°
2026-05-08 19:27 52.18676 4.29925 32120 ft 408 kts 257°
2026-05-08 19:28 52.16992 4.21111 32132 ft 408 kts 257°
2026-05-08 19:28 52.15303 4.12325 32131 ft 409 kts 257°
2026-05-08 19:29 52.13596 4.03518 32127 ft 408 kts 257°
2026-05-08 19:29 52.11887 3.94727 32122 ft 410 kts 257°
2026-05-08 19:30 52.10166 3.85900 32127 ft 410 kts 257°
2026-05-08 19:30 52.08452 3.77131 32131 ft 408 kts 257°
2026-05-08 19:31 52.06746 3.68440 32127 ft 407 kts 257°
2026-05-08 19:31 52.05033 3.59761 32127 ft 404 kts 257°
2026-05-08 19:32 52.03307 3.51043 32135 ft 407 kts 257°
2026-05-08 19:32 52.01579 3.42364 32135 ft 405 kts 257°
2026-05-08 19:33 51.99924 3.34065 32121 ft 404 kts 256°
2026-05-08 19:33 51.98186 3.25403 32127 ft 403 kts 256°
2026-05-08 19:34 51.96631 3.16708 32127 ft 400 kts 263°
2026-05-08 19:34 51.96196 3.12285 31996 ft 392 kts 266°
2026-05-08 19:34 51.95873 3.07935 31286 ft 394 kts 268°
2026-05-08 19:34 51.95591 3.03533 30676 ft 394 kts 268°
2026-05-08 19:35 51.95320 2.99150 29934 ft 396 kts 268°
2026-05-08 19:35 51.95047 2.94725 29192 ft 399 kts 268°
2026-05-08 19:35 51.94765 2.90252 28502 ft 399 kts 267°
2026-05-08 19:35 51.94479 2.85825 28094 ft 393 kts 267°
2026-05-08 19:36 51.94191 2.81474 27618 ft 389 kts 266°
2026-05-08 19:36 51.93904 2.77164 27141 ft 385 kts 266°
2026-05-08 19:36 51.93621 2.72939 26673 ft 381 kts 266°
2026-05-08 19:36 51.93333 2.68675 26202 ft 377 kts 266°
2026-05-08 19:37 51.93048 2.64485 25718 ft 373 kts 266°
2026-05-08 19:37 51.92767 2.60373 25264 ft 370 kts 266°
2026-05-08 19:37 51.92484 2.56247 24791 ft 367 kts 266°
2026-05-08 19:37 51.92202 2.52168 24339 ft 364 kts 265°
2026-05-08 19:38 51.91925 2.48179 23880 ft 360 kts 265°
2026-05-08 19:38 51.91645 2.44188 23443 ft 357 kts 265°
2026-05-08 19:38 51.91366 2.40213 23003 ft 354 kts 265°
2026-05-08 19:38 51.91090 2.36283 22565 ft 352 kts 265°
2026-05-08 19:39 51.90835 2.32675 22259 ft 350 kts 264°
2026-05-08 19:39 51.90622 2.28694 22157 ft 362 kts 266°
2026-05-08 19:39 51.90487 2.24625 21994 ft 367 kts 268°
2026-05-08 19:39 51.90408 2.20457 21640 ft 377 kts 269°
2026-05-08 19:40 51.90344 2.16266 21223 ft 376 kts 269°
2026-05-08 19:40 51.90276 2.12053 20805 ft 371 kts 269°
2026-05-08 19:40 51.90202 2.07941 20389 ft 368 kts 268°
2026-05-08 19:40 51.90118 2.03818 19967 ft 367 kts 268°
2026-05-08 19:41 51.90026 1.99716 19533 ft 365 kts 268°
2026-05-08 19:41 51.89930 1.95626 19088 ft 364 kts 268°
2026-05-08 19:41 51.89895 1.91478 18645 ft 380 kts 272°
2026-05-08 19:41 51.90308 1.87240 18204 ft 385 kts 286°
2026-05-08 19:42 51.91334 1.83292 17816 ft 381 kts 295°
2026-05-08 19:42 51.92560 1.79529 17472 ft 381 kts 298°
2026-05-08 19:42 51.93847 1.75780 17120 ft 380 kts 298°
2026-05-08 19:42 51.95137 1.72040 16760 ft 378 kts 298°
2026-05-08 19:43 51.96405 1.68319 16411 ft 378 kts 298°
2026-05-08 19:43 51.97657 1.64594 16069 ft 376 kts 297°
2026-05-08 19:43 51.98873 1.60931 15725 ft 373 kts 297°
2026-05-08 19:43 52.00088 1.57245 15381 ft 371 kts 297°
2026-05-08 19:44 52.01294 1.53561 15028 ft 369 kts 297°
2026-05-08 19:44 52.02477 1.49943 14674 ft 360 kts 297°
2026-05-08 19:44 52.03646 1.46355 14325 ft 351 kts 297°
2026-05-08 19:44 52.04768 1.42912 13970 ft 344 kts 297°
2026-05-08 19:45 52.05864 1.39541 13632 ft 337 kts 297°
2026-05-08 19:45 52.06950 1.36196 13309 ft 330 kts 297°
2026-05-08 19:45 52.08009 1.32931 12980 ft 323 kts 296°
2026-05-08 19:45 52.09045 1.29734 12693 ft 316 kts 296°
2026-05-08 19:46 52.10057 1.26607 12383 ft 308 kts 297°
2026-05-08 19:46 52.11011 1.23517 12176 ft 298 kts 292°
2026-05-08 19:46 52.11384 1.17094 12137 ft 292 kts 256°
2026-05-08 19:47 52.10828 1.13919 12133 ft 293 kts 252°
2026-05-08 19:47 52.10232 1.10766 12110 ft 292 kts 253°
2026-05-08 19:47 52.09649 1.07559 12108 ft 292 kts 253°
2026-05-08 19:47 52.09103 1.04402 12113 ft 293 kts 254°
2026-05-08 19:48 52.08566 1.01211 12116 ft 292 kts 254°
2026-05-08 19:48 52.08030 0.97995 12117 ft 292 kts 254°
2026-05-08 19:48 52.07495 0.94792 12107 ft 293 kts 254°
2026-05-08 19:48 52.06960 0.91592 11846 ft 294 kts 255°
2026-05-08 19:49 52.06423 0.88393 11420 ft 294 kts 255°
2026-05-08 19:49 52.05881 0.85172 11025 ft 292 kts 255°
2026-05-08 19:49 52.05349 0.82021 10650 ft 290 kts 255°
2026-05-08 19:49 52.04821 0.78895 10282 ft 288 kts 255°
2026-05-08 19:50 52.04286 0.75740 9957 ft 287 kts 255°
2026-05-08 19:50 52.03758 0.72623 9632 ft 285 kts 255°
2026-05-08 19:50 52.03239 0.69563 9255 ft 284 kts 255°
2026-05-08 19:50 52.02712 0.66449 8828 ft 282 kts 255°
2026-05-08 19:51 52.02196 0.63403 8468 ft 281 kts 255°
2026-05-08 19:51 52.01701 0.60331 8139 ft 276 kts 259°
2026-05-08 19:51 52.01459 0.57350 8147 ft 262 kts 266°
2026-05-08 19:51 52.01336 0.54474 8095 ft 249 kts 267°
2026-05-08 19:52 52.01234 0.51692 8083 ft 247 kts 267°
2026-05-08 19:52 52.01133 0.48884 8080 ft 249 kts 268°
2026-05-08 19:52 52.01032 0.46093 8141 ft 248 kts 267°
2026-05-08 19:52 52.00933 0.43267 8096 ft 249 kts 268°
2026-05-08 19:53 52.00836 0.40465 8096 ft 248 kts 268°
2026-05-08 19:53 52.00735 0.37675 8110 ft 249 kts 268°
2026-05-08 19:53 52.00631 0.34875 7950 ft 249 kts 266°
2026-05-08 19:53 52.00531 0.32058 7744 ft 247 kts 266°
2026-05-08 19:54 52.00436 0.29277 7703 ft 246 kts 267°
2026-05-08 19:54 52.00340 0.26495 7464 ft 245 kts 267°
2026-05-08 19:54 52.00239 0.23722 7263 ft 246 kts 267°
2026-05-08 19:54 52.00144 0.20973 7073 ft 245 kts 267°
2026-05-08 19:55 52.00050 0.18209 6860 ft 244 kts 267°
2026-05-08 19:55 51.99957 0.15427 6661 ft 244 kts 267°
2026-05-08 19:55 51.99843 0.12678 6450 ft 244 kts 261°
2026-05-08 19:55 51.99234 0.10159 6276 ft 243 kts 232°
2026-05-08 19:56 51.97920 0.08487 6158 ft 240 kts 202°
2026-05-08 19:56 51.96336 0.07663 6157 ft 241 kts 194°
2026-05-08 19:56 51.94712 0.06971 6113 ft 240 kts 194°
2026-05-08 19:56 51.93096 0.06293 6128 ft 240 kts 194°
2026-05-08 19:57 51.91466 0.05612 6127 ft 240 kts 194°
2026-05-08 19:57 51.89835 0.04935 6131 ft 241 kts 194°
2026-05-08 19:57 51.88213 0.04261 6143 ft 241 kts 194°
2026-05-08 19:57 51.86582 0.03581 6116 ft 239 kts 194°
2026-05-08 19:58 51.84987 0.02915 6030 ft 235 kts 194°
2026-05-08 19:58 51.83389 0.02241 5641 ft 239 kts 194°
2026-05-08 19:58 51.81775 0.01527 5334 ft 238 kts 198°
2026-05-08 19:58 51.80358 0.00230 5022 ft 238 kts 218°
2026-05-08 19:59 51.79101 -0.01538 4801 ft 237 kts 221°
2026-05-08 19:59 51.77919 -0.03265 4777 ft 221 kts 221°
2026-05-08 19:59 51.76818 -0.04880 4577 ft 213 kts 221°
2026-05-08 19:59 51.75713 -0.06503 4227 ft 214 kts 221°
2026-05-08 20:00 51.74537 -0.07903 3899 ft 210 kts 201°
2026-05-08 20:00 51.73107 -0.08145 3533 ft 206 kts 166°
2026-05-08 20:00 51.71903 -0.06991 3171 ft 202 kts 129°
2026-05-08 20:00 51.71429 -0.04999 3072 ft 189 kts 91°
2026-05-08 20:01 51.71612 -0.02940 2937 ft 181 kts 76°
2026-05-08 20:01 51.72183 -0.01172 2628 ft 182 kts 52°
2026-05-08 20:01 51.73047 0.00314 2468 ft 178 kts 48°
2026-05-08 20:01 51.73936 0.01741 2486 ft 181 kts 46°
2026-05-08 20:02 51.74846 0.03134 2476 ft 180 kts 45°
2026-05-08 20:02 51.75770 0.04519 2471 ft 181 kts 45°
2026-05-08 20:02 51.76703 0.05913 2482 ft 181 kts 45°
2026-05-08 20:02 51.77628 0.07288 2469 ft 181 kts 45°
2026-05-08 20:03 51.78555 0.08667 2481 ft 181 kts 45°
2026-05-08 20:03 51.79496 0.10066 2490 ft 182 kts 45°
2026-05-08 20:03 51.80431 0.11459 2327 ft 185 kts 45°
2026-05-08 20:03 51.81375 0.12864 2059 ft 183 kts 45°
2026-05-08 20:04 51.82294 0.14233 1812 ft 180 kts 45°
2026-05-08 20:04 51.83212 0.15602 1575 ft 175 kts 45°
2026-05-08 20:04 51.84083 0.16897 1328 ft 164 kts 45°
2026-05-08 20:04 51.84888 0.18096 1121 ft 153 kts 46°
2026-05-08 20:05 51.85666 0.19255 944 ft 148 kts 45°
2026-05-08 20:05 51.86425 0.20386 699 ft 148 kts 45°
2026-05-08 20:05 51.87178 0.21508 522 ft 148 kts 45°
2026-05-08 20:05 51.87934 0.22629 360 ft 146 kts 45°
2026-05-08 20:06 51.88691 0.23768 340 ft 150 kts 43°
2026-05-08 20:06 51.89497 0.24953 560 ft 165 kts 43°
2026-05-08 20:06 51.90271 0.26066 1400 ft 154 kts 45°
2026-05-08 20:06 51.91107 0.27314 1732 ft 173 kts 45°
2026-05-08 20:07 51.92019 0.28634 2293 ft 179 kts 43°
2026-05-08 20:07 51.93070 0.29847 2733 ft 193 kts 24°
2026-05-08 20:07 51.94473 0.30014 3003 ft 220 kts 347°
2026-05-08 20:07 51.95799 0.28759 3002 ft 220 kts 312°
2026-05-08 20:08 51.96562 0.26709 2986 ft 207 kts 288°
2026-05-08 20:08 51.96614 0.24482 2999 ft 199 kts 252°
2026-05-08 20:08 51.96106 0.22415 3022 ft 197 kts 242°
2026-05-08 20:08 51.95432 0.20457 2999 ft 200 kts 234°
2026-05-08 20:09 51.94439 0.18696 3005 ft 226 kts 220°
2026-05-08 20:09 51.93254 0.17004 2983 ft 230 kts 220°
2026-05-08 20:09 51.92050 0.15250 2995 ft 232 kts 221°
2026-05-08 20:09 51.90867 0.13451 3002 ft 232 kts 222°
2026-05-08 20:10 51.89704 0.11652 3003 ft 232 kts 222°
2026-05-08 20:10 51.88535 0.09837 3003 ft 233 kts 222°
2026-05-08 20:10 51.87360 0.08022 3003 ft 233 kts 222°
2026-05-08 20:10 51.86201 0.06237 3001 ft 231 kts 222°
2026-05-08 20:11 51.85059 0.04482 2964 ft 220 kts 221°
2026-05-08 20:11 51.83964 0.02824 2858 ft 212 kts 221°
2026-05-08 20:11 51.82905 0.01234 2744 ft 203 kts 221°
2026-05-08 20:11 51.81895 -0.00291 2641 ft 195 kts 220°
2026-05-08 20:12 51.80821 -0.01505 2548 ft 186 kts 195°
2026-05-08 20:12 51.79628 -0.01504 2498 ft 179 kts 156°
2026-05-08 20:12 51.78641 -0.00303 2474 ft 178 kts 133°
2026-05-08 20:12 51.77798 0.01127 2497 ft 177 kts 133°
2026-05-08 20:13 51.76970 0.02499 2475 ft 162 kts 131°
2026-05-08 20:13 51.76477 0.04048 2460 ft 157 kts 98°
2026-05-08 20:13 51.76731 0.05748 2476 ft 161 kts 54°
2026-05-08 20:13 51.77532 0.07008 2475 ft 163 kts 45°
2026-05-08 20:14 51.78347 0.08268 2482 ft 161 kts 47°
2026-05-08 20:14 51.79169 0.09531 2491 ft 161 kts 46°
2026-05-08 20:14 51.79993 0.10775 2419 ft 164 kts 46°
2026-05-08 20:14 51.80812 0.12005 2218 ft 161 kts 46°
2026-05-08 20:15 51.81632 0.13231 1994 ft 159 kts 46°
2026-05-08 20:15 51.82441 0.14442 1782 ft 157 kts 46°
2026-05-08 20:15 51.83241 0.15639 1587 ft 155 kts 46°
2026-05-08 20:15 51.84014 0.16782 1294 ft 149 kts 45°
2026-05-08 20:16 51.84776 0.17893 1128 ft 148 kts 45°
2026-05-08 20:16 51.85542 0.19034 936 ft 149 kts 46°
2026-05-08 20:16 51.86298 0.20174 749 ft 150 kts 46°
2026-05-08 20:16 51.87063 0.21318 536 ft 152 kts 45°
2026-05-08 20:17 51.87835 0.22479 357 ft 151 kts 45°
2026-05-08 20:17 51.88541 0.23544 341 ft 117 kts 43°
2026-05-08 20:17 51.89022 0.24269 340 ft 73 kts 44°
2026-05-08 20:17 51.89288 0.24667 344 ft 30 kts 44°
2026-05-08 20:18 51.89403 0.24836 346 ft 17 kts 42°
2026-05-08 20:18 51.89484 0.24961 347 ft 15 kts 51°
2026-05-08 20:18 51.89452 0.25091 347 ft 13 kts 133°
2026-05-08 20:18 51.89390 0.25200 347 ft 12 kts 132°
2026-05-08 20:19 51.89352 0.25293 347 ft 6 kts 81°
2026-05-08 20:19 51.89377 0.25343 347 ft 7 kts 40°
2026-05-08 20:19 51.89424 0.25455 348 ft 13 kts 100°
2026-05-08 20:19 51.89360 0.25555 347 ft 12 kts 150°
2026-05-08 20:20 51.89294 0.25649 347 ft 12 kts 130°
2026-05-08 20:20 51.89238 0.25751 347 ft 12 kts 133°
2026-05-08 20:20 51.89204 0.25789 346 ft 4 kts 195°
2026-05-08 20:20 51.89180 0.25759 346 ft 2 kts 223°
2026-05-08 20:21 51.89167 0.25740 345 ft 1 kts 222°
2026-05-08 20:21 51.89164 0.25736 345 ft 0 kts 222°